This is the latest recevied weather packets stored in our database for station/object SP9KB-13. If no packets are shown the sender has not sent any weather packets the latest 10 day(s).
| Time | Temp. | Humidity | Pressure | Rain* | Wind** | Luminosity | Snow |
|---|---|---|---|---|---|---|---|
| 1777783784 | 4.44° C | 87% | 1003.1 hPa | 0 mm | - | - | - |
| 1777783484 | 4.44° C | 87% | 1003 hPa | 0 mm | - | - | - |
| 1777783183 | 4.44° C | 85% | 1003 hPa | 0 mm | - | - | - |
| 1777782882 | 4.44° C | 89% | 1003 hPa | 0 mm | - | - | - |
| 1777782582 | 2.78° C | 94% | 1002.9 hPa | 0 mm | - | - | - |
| 1777781981 | 1.67° C | 98% | 1003.1 hPa | 0 mm | - | - | - |
| 1777781680 | 1.11° C | 99% | 1002.8 hPa | 0 mm | - | - | - |
| 1777781380 | 0.56° C | 99% | 1003 hPa | 0 mm | - | - | - |
| 1777781079 | 0° C | 99% | 1002.9 hPa | 0 mm | - | - | - |
| 1777780779 | -0.56° C | 99% | 1002.9 hPa | 0 mm | - | - | - |
| 1777780478 | -0.56° C | 99% | 1003 hPa | 0 mm | - | - | - |
| 1777780178 | -0.56° C | 99% | 1002.9 hPa | 0 mm | - | - | - |
| 1777779877 | -0.56° C | 99% | 1002.8 hPa | 0 mm | - | - | - |
| 1777779577 | -0.56° C | 99% | 1003 hPa | 0 mm | - | - | - |
| 1777779276 | -0.56° C | 99% | 1002.9 hPa | 0 mm | - | - | - |
| 1777778976 | -0.56° C | 99% | 1002.9 hPa | 0 mm | - | - | - |
| 1777778675 | -0.56° C | 99% | 1002.8 hPa | 0 mm | - | - | - |
| 1777778374 | -0.56° C | 99% | 1002.9 hPa | 0 mm | - | - | - |
| 1777778074 | -1.11° C | 99% | 1002.8 hPa | 0 mm | - | - | - |
| 1777777773 | -1.11° C | 99% | 1002.9 hPa | 0 mm | - | - | - |
| 1777777473 | -0.56° C | 99% | 1002.8 hPa | 0 mm | - | - | - |
| 1777777172 | -0.56° C | 99% | 1002.8 hPa | 0 mm | - | - | - |
| 1777776872 | -0.56° C | 99% | 1002.9 hPa | 0 mm | - | - | - |
| 1777776571 | -0.56° C | 99% | 1003 hPa | 0 mm | - | - | - |
| 1777776271 | -0.56° C | 99% | 1002.8 hPa | 0 mm | - | - | - |
* Rain latest hour (hover to see other rain measurements)
** Current wind speed in m/s (hover to see current wind gust speed)